Location: Gloden
(48.4833°N, 15.3167°E)
Time: 12:45:56
(UTC+00:00)

Okean O Rocket - Pass Details

Date: 15 December 2019
Orbit: 624 x 644 km, 98.2° (Epoch: 18 January)

Event Time Altitude Azimuth Distance (km) Brightness Sun altitude
Rises 04:26:48 0° 17° (NNE) 2,936 5.1 -21.5°
Reaches altitude 10° 04:29:03 10° 21° (NNE) 2,027 4.3 -21.1°
Maximum altitude 04:33:24 58° 101° (ESE) 742 2.2 -20.4°
Drops below altitude 10° 04:37:45 10° 181° (S) 2,023 4.3 -19.7°
Sets 04:39:59 0° 185° (S) 2,930 5.1 -19.4°
